Time,TemperatureF,DewpointF,PressureIn,WindDirection,WindDirectionDegrees,WindSpeedMPH,WindSpeedGustMPH,Humidity,HourlyPrecipIn,Conditions,Clouds,dailyrainin,SoftwareType,DateUTC
2013-05-10 00:03:00,63.9,31.0,29.89,North,360,0.0,3.0,29,0.00,,,0.00,VWS V14.01,2013-05-10 07:03:00,
2013-05-10 00:08:00,63.0,30.3,29.89,North,360,2.0,4.0,29,0.00,,,0.00,VWS V14.01,2013-05-10 07:08:00,
2013-05-10 00:13:00,62.9,31.0,29.89,North,350,2.0,3.0,30,0.00,,,0.00,VWS V14.01,2013-05-10 07:13:00,
2013-05-10 00:18:00,63.2,31.3,29.89,North,351,0.0,3.0,30,0.00,,,0.00,VWS V14.01,2013-05-10 07:18:00,
2013-05-10 00:23:00,63.0,31.1,29.89,North,351,3.0,3.0,30,0.00,,,0.00,VWS V14.01,2013-05-10 07:23:00,
2013-05-10 00:28:00,63.0,31.1,29.89,North,351,1.0,3.0,30,0.00,,,0.00,VWS V14.01,2013-05-10 07:28:00,
2013-05-10 00:33:00,62.9,31.0,29.89,North,351,1.0,3.0,30,0.00,,,0.00,VWS V14.01,2013-05-10 07:33:00,
2013-05-10 00:38:00,62.6,30.8,29.89,North,351,1.0,1.0,30,0.00,,,0.00,VWS V14.01,2013-05-10 07:38:00,
2013-05-10 00:43:00,61.9,31.0,29.89,North,351,1.0,2.0,31,0.00,,,0.00,VWS V14.01,2013-05-10 07:43:00,
2013-05-10 00:48:00,61.3,30.4,29.89,North,351,1.0,2.0,31,0.00,,,0.00,VWS V14.01,2013-05-10 07:48:00,
2013-05-10 00:53:00,60.7,30.7,29.89,North,351,0.0,0.0,32,0.00,,,0.00,VWS V14.01,2013-05-10 07:53:00,
2013-05-10 00:58:00,60.1,30.2,29.89,North,351,1.0,2.0,32,0.00,,,0.00,VWS V14.01,2013-05-10 07:58:00,
2013-05-10 01:03:00,59.4,30.3,29.88,North,349,0.0,2.0,33,0.00,,,0.00,VWS V14.01,2013-05-10 08:03:00,
2013-05-10 01:08:00,59.6,31.2,29.88,NNW,334,1.0,3.0,34,0.00,,,0.00,VWS V14.01,2013-05-10 08:08:00,
2013-05-10 01:13:00,60.0,30.8,29.88,NNW,334,1.0,2.0,33,0.00,,,0.00,VWS V14.01,2013-05-10 08:13:00,
2013-05-10 01:18:00,60.0,30.8,29.88,NNW,334,0.0,0.0,33,0.00,,,0.00,VWS V14.01,2013-05-10 08:18:00,
2013-05-10 01:23:00,60.2,31.0,29.88,NNW,335,1.0,3.0,33,0.00,,,0.00,VWS V14.01,2013-05-10 08:23:00,
2013-05-10 01:28:00,60.0,30.8,29.88,NNW,335,2.0,3.0,33,0.00,,,0.00,VWS V14.01,2013-05-10 08:28:00,
2013-05-10 01:33:00,60.1,30.9,29.88,NNW,335,3.0,4.0,33,0.00,,,0.00,VWS V14.01,2013-05-10 08:33:00,
2013-05-10 01:38:00,60.4,31.2,29.88,NNW,329,0.0,4.0,33,0.00,,,0.00,VWS V14.01,2013-05-10 08:38:00,
2013-05-10 01:43:00,60.4,31.2,29.88,NNW,329,1.0,3.0,33,0.00,,,0.00,VWS V14.01,2013-05-10 08:43:00,
2013-05-10 01:48:00,60.3,31.1,29.88,NNW,330,2.0,4.0,33,0.00,,,0.00,VWS V14.01,2013-05-10 08:48:00,
2013-05-10 01:53:00,60.1,31.7,29.88,NNW,328,0.0,2.0,34,0.00,,,0.00,VWS V14.01,2013-05-10 08:53:00,
2013-05-10 01:58:00,60.2,31.0,29.88,NNW,328,0.0,1.0,33,0.00,,,0.00,VWS V14.01,2013-05-10 08:58:00,
2013-05-10 02:03:00,60.2,31.0,29.88,NNW,327,1.0,3.0,33,0.00,,,0.00,VWS V14.01,2013-05-10 09:03:00,
2013-05-10 02:08:00,59.8,31.4,29.88,NNW,328,0.0,3.0,34,0.00,,,0.00,VWS V14.01,2013-05-10 09:08:00,
2013-05-10 02:13:00,59.3,31.0,29.88,NNW,327,0.0,1.0,34,0.00,,,0.00,VWS V14.01,2013-05-10 09:13:00,
2013-05-10 02:18:00,58.1,29.9,29.88,ENE,71,1.0,4.0,34,0.00,,,0.00,VWS V14.01,2013-05-10 09:18:00,
2013-05-10 02:23:00,57.3,29.9,29.88,ENE,69,2.0,3.0,35,0.00,,,0.00,VWS V14.01,2013-05-10 09:23:00,
2013-05-10 02:28:00,57.3,30.6,29.88,North,9,2.0,3.0,36,0.00,,,0.00,VWS V14.01,2013-05-10 09:28:00,
2013-05-10 02:33:00,57.3,30.6,29.88,NNE,23,0.0,2.0,36,0.00,,,0.00,VWS V14.01,2013-05-10 09:33:00,
2013-05-10 02:38:00,57.1,30.4,29.88,NNE,23,1.0,1.0,36,0.00,,,0.00,VWS V14.01,2013-05-10 09:38:00,
2013-05-10 02:43:00,57.2,31.2,29.88,North,351,0.0,1.0,37,0.00,,,0.00,VWS V14.01,2013-05-10 09:43:00,
2013-05-10 02:48:00,57.3,30.6,29.88,North,351,0.0,1.0,36,0.00,,,0.00,VWS V14.01,2013-05-10 09:48:00,
2013-05-10 02:53:00,57.2,31.8,29.88,North,351,0.0,1.0,38,0.00,,,0.00,VWS V14.01,2013-05-10 09:53:00,
2013-05-10 02:58:00,57.7,31.6,29.88,North,351,2.0,2.0,37,0.00,,,0.00,VWS V14.01,2013-05-10 09:58:00,
2013-05-10 03:03:00,57.0,31.0,29.88,North,351,0.0,1.0,37,0.00,,,0.00,VWS V14.01,2013-05-10 10:03:00,
2013-05-10 03:08:00,56.0,30.8,29.88,North,355,1.0,1.0,38,0.00,,,0.00,VWS V14.01,2013-05-10 10:08:00,
2013-05-10 03:13:00,56.0,31.4,29.88,North,355,2.0,2.0,39,0.00,,,0.00,VWS V14.01,2013-05-10 10:13:00,
2013-05-10 03:18:00,57.0,31.7,29.88,North,355,1.0,3.0,38,0.00,,,0.00,VWS V14.01,2013-05-10 10:18:00,
2013-05-10 03:23:00,57.5,31.5,29.89,North,355,0.0,1.0,37,0.00,,,0.00,VWS V14.01,2013-05-10 10:23:00,
2013-05-10 03:28:00,57.3,31.3,29.89,North,355,0.0,0.0,37,0.00,,,0.00,VWS V14.01,2013-05-10 10:28:00,
2013-05-10 03:33:00,56.4,31.8,29.88,North,355,0.0,0.0,39,0.00,,,0.00,VWS V14.01,2013-05-10 10:33:00,
2013-05-10 03:38:00,55.3,31.4,29.88,North,355,0.0,0.0,40,0.00,,,0.00,VWS V14.01,2013-05-10 10:38:00,
2013-05-10 03:43:00,55.9,31.3,29.88,North,355,0.0,2.0,39,0.00,,,0.00,VWS V14.01,2013-05-10 10:43:00,
2013-05-10 03:48:00,56.3,31.7,29.88,North,355,1.0,3.0,39,0.00,,,0.00,VWS V14.01,2013-05-10 10:48:00,
2013-05-10 03:53:00,57.1,31.8,29.88,North,355,2.0,3.0,38,0.00,,,0.00,VWS V14.01,2013-05-10 10:53:00,
2013-05-10 03:58:00,57.7,32.3,29.88,North,355,1.0,2.0,38,0.00,,,0.00,VWS V14.01,2013-05-10 10:58:00,
2013-05-10 04:03:00,58.0,31.9,29.88,North,355,1.0,2.0,37,0.00,,,0.00,VWS V14.01,2013-05-10 11:03:00,
2013-05-10 04:08:00,57.9,31.8,29.89,North,355,0.0,2.0,37,0.00,,,0.00,VWS V14.01,2013-05-10 11:08:00,
2013-05-10 04:13:00,57.6,31.5,29.88,North,355,0.0,2.0,37,0.00,,,0.00,VWS V14.01,2013-05-10 11:13:00,
2013-05-10 04:18:00,57.3,31.3,29.88,North,355,1.0,1.0,37,0.00,,,0.00,VWS V14.01,2013-05-10 11:18:00,
2013-05-10 04:23:00,56.4,31.1,29.88,North,355,0.0,1.0,38,0.00,,,0.00,VWS V14.01,2013-05-10 11:23:00,
2013-05-10 04:28:00,55.7,31.8,29.88,North,355,0.0,0.0,40,0.00,,,0.00,VWS V14.01,2013-05-10 11:28:00,
2013-05-10 04:33:00,55.6,31.7,29.88,North,355,0.0,0.0,40,0.00,,,0.00,VWS V14.01,2013-05-10 11:33:00,
2013-05-10 04:38:00,54.9,31.0,29.89,North,355,0.0,0.0,40,0.00,,,0.00,VWS V14.01,2013-05-10 11:38:00,
2013-05-10 04:43:00,54.0,30.9,29.89,North,355,1.0,2.0,41,0.00,,,0.00,VWS V14.01,2013-05-10 11:43:00,
2013-05-10 04:48:00,54.0,30.9,29.89,North,360,2.0,3.0,41,0.00,,,0.00,VWS V14.01,2013-05-10 11:48:00,
2013-05-10 04:53:00,54.1,30.9,29.89,NNE,19,2.0,3.0,41,0.00,,,0.00,VWS V14.01,2013-05-10 11:53:00,
2013-05-10 04:58:00,54.1,31.5,29.89,NNE,22,1.0,3.0,42,0.00,,,0.00,VWS V14.01,2013-05-10 11:58:00,
2013-05-10 05:03:00,53.9,31.4,29.89,NNE,26,2.0,3.0,42,0.00,,,0.00,VWS V14.01,2013-05-10 12:03:00,
2013-05-10 05:08:00,53.5,31.0,29.89,NNE,31,2.0,3.0,42,0.00,,,0.00,VWS V14.01,2013-05-10 12:08:00,
2013-05-10 05:13:00,52.9,31.0,29.89,NNE,26,0.0,3.0,43,0.00,,,0.00,VWS V14.01,2013-05-10 12:13:00,
2013-05-10 05:18:00,52.8,30.9,29.89,NNE,26,1.0,3.0,43,0.00,,,0.00,VWS V14.01,2013-05-10 12:18:00,
2013-05-10 05:23:00,52.7,31.4,29.89,NNE,26,0.0,2.0,44,0.00,,,0.00,VWS V14.01,2013-05-10 12:23:00,
2013-05-10 05:28:00,52.5,31.2,29.90,NNE,26,1.0,1.0,44,0.00,,,0.00,VWS V14.01,2013-05-10 12:28:00,
2013-05-10 05:33:00,52.3,31.6,29.90,North,9,2.0,3.0,45,0.00,,,0.00,VWS V14.01,2013-05-10 12:33:00,
2013-05-10 05:38:00,52.5,31.8,29.90,North,9,0.0,2.0,45,0.00,,,0.00,VWS V14.01,2013-05-10 12:38:00,
2013-05-10 05:43:00,53.2,31.9,29.90,North,9,0.0,2.0,44,0.00,,,0.00,VWS V14.01,2013-05-10 12:43:00,
2013-05-10 05:48:00,53.6,32.2,29.91,North,9,0.0,2.0,44,0.00,,,0.00,VWS V14.01,2013-05-10 12:48:00,
2013-05-10 05:53:00,53.4,32.6,29.91,North,9,0.0,2.0,45,0.00,,,0.00,VWS V14.01,2013-05-10 12:53:00,
2013-05-10 05:58:00,52.8,32.1,29.91,North,9,1.0,2.0,45,0.00,,,0.00,VWS V14.01,2013-05-10 12:58:00,
2013-05-10 06:03:00,53.1,32.3,29.91,North,9,2.0,3.0,45,0.00,,,0.00,VWS V14.01,2013-05-10 13:03:00,
2013-05-10 06:08:00,54.6,33.1,29.91,North,5,1.0,3.0,44,0.00,,,0.00,VWS V14.01,2013-05-10 13:08:00,
2013-05-10 06:13:00,54.4,32.4,29.91,North,5,0.0,2.0,43,0.00,,,0.00,VWS V14.01,2013-05-10 13:13:00,
2013-05-10 06:18:00,54.2,32.8,29.91,North,5,0.0,1.0,44,0.00,,,0.00,VWS V14.01,2013-05-10 13:18:00,
2013-05-10 06:23:00,54.8,33.3,29.91,North,5,0.0,1.0,44,0.00,,,0.00,VWS V14.01,2013-05-10 13:23:00,
2013-05-10 06:28:00,54.6,33.1,29.92,NE,39,2.0,2.0,44,0.00,,,0.00,VWS V14.01,2013-05-10 13:28:00,
2013-05-10 06:33:00,55.5,33.4,29.92,NNE,27,1.0,4.0,43,0.00,,,0.00,VWS V14.01,2013-05-10 13:33:00,
2013-05-10 06:38:00,56.1,33.9,29.92,NNE,27,0.0,0.0,43,0.00,,,0.00,VWS V14.01,2013-05-10 13:38:00,
2013-05-10 06:43:00,55.7,33.0,29.92,NNE,27,0.0,1.0,42,0.00,,,0.00,VWS V14.01,2013-05-10 13:43:00,
2013-05-10 06:48:00,55.5,33.4,29.92,NNE,27,1.0,2.0,43,0.00,,,0.00,VWS V14.01,2013-05-10 13:48:00,
2013-05-10 06:53:00,55.5,33.4,29.92,NNE,27,0.0,2.0,43,0.00,,,0.00,VWS V14.01,2013-05-10 13:53:00,
2013-05-10 06:58:00,56.0,33.8,29.93,NNE,27,0.0,1.0,43,0.00,,,0.00,VWS V14.01,2013-05-10 13:58:00,
2013-05-10 07:03:00,57.5,34.6,29.93,NNE,27,0.0,1.0,42,0.00,,,0.00,VWS V14.01,2013-05-10 14:03:00,
2013-05-10 07:08:00,59.2,35.5,29.93,NNE,27,0.0,1.0,41,0.00,,,0.00,VWS V14.01,2013-05-10 14:08:00,
2013-05-10 07:13:00,59.9,36.8,29.93,NNE,27,0.0,0.0,42,0.00,,,0.00,VWS V14.01,2013-05-10 14:13:00,
2013-05-10 07:18:00,60.5,35.4,29.93,NNE,27,0.0,0.0,39,0.00,,,0.00,VWS V14.01,2013-05-10 14:18:00,
2013-05-10 07:23:00,61.3,34.8,29.93,NNE,27,0.0,1.0,37,0.00,,,0.00,VWS V14.01,2013-05-10 14:23:00,
2013-05-10 07:28:00,63.1,35.0,29.93,NNE,27,0.0,0.0,35,0.00,,,0.00,VWS V14.01,2013-05-10 14:28:00,
2013-05-10 07:33:00,64.7,35.0,29.93,NNE,27,0.0,0.0,33,0.00,,,0.00,VWS V14.01,2013-05-10 14:33:00,
2013-05-10 07:38:00,64.8,35.8,29.93,NNE,27,0.0,0.0,34,0.00,,,0.00,VWS V14.01,2013-05-10 14:38:00,
2013-05-10 07:43:00,65.3,35.5,29.93,NNE,27,0.0,0.0,33,0.00,,,0.00,VWS V14.01,2013-05-10 14:43:00,
2013-05-10 07:48:00,66.8,36.0,29.93,NNE,28,0.0,2.0,32,0.00,,,0.00,VWS V14.01,2013-05-10 14:48:00,
2013-05-10 07:53:00,66.5,36.5,29.93,SSE,151,0.0,4.0,33,0.00,,,0.00,VWS V14.01,2013-05-10 14:53:00,
2013-05-10 07:58:00,67.6,36.7,29.93,SSE,151,1.0,2.0,32,0.00,,,0.00,VWS V14.01,2013-05-10 14:58:00,
2013-05-10 08:03:00,67.7,36.0,29.94,SE,134,0.0,4.0,31,0.00,,,0.00,VWS V14.01,2013-05-10 15:03:00,
2013-05-10 08:08:00,67.8,36.9,29.94,SE,131,0.0,1.0,32,0.00,,,0.00,VWS V14.01,2013-05-10 15:08:00,
2013-05-10 08:13:00,68.6,37.6,29.94,SE,138,1.0,4.0,32,0.00,,,0.00,VWS V14.01,2013-05-10 15:13:00,
2013-05-10 08:18:00,69.2,37.3,29.94,SE,140,1.0,1.0,31,0.00,,,0.00,VWS V14.01,2013-05-10 15:18:00,
2013-05-10 08:23:00,69.7,36.9,29.94,SE,140,0.0,2.0,30,0.00,,,0.00,VWS V14.01,2013-05-10 15:23:00,
2013-05-10 08:28:00,70.5,36.7,29.94,SSE,167,1.0,5.0,29,0.00,,,0.00,VWS V14.01,2013-05-10 15:28:00,
2013-05-10 08:33:00,70.5,37.6,29.94,SSE,166,0.0,2.0,30,0.00,,,0.00,VWS V14.01,2013-05-10 15:33:00,
2013-05-10 08:38:00,70.7,36.9,29.94,South,183,1.0,3.0,29,0.00,,,0.00,VWS V14.01,2013-05-10 15:38:00,
2013-05-10 08:43:00,69.7,36.9,29.94,South,184,1.0,2.0,30,0.00,,,0.00,VWS V14.01,2013-05-10 15:43:00,
2013-05-10 08:48:00,70.6,37.7,29.94,SW,236,0.0,5.0,30,0.00,,,0.00,VWS V14.01,2013-05-10 15:48:00,
2013-05-10 08:53:00,71.7,38.6,29.94,WSW,247,0.0,4.0,30,0.00,,,0.00,VWS V14.01,2013-05-10 15:53:00,
2013-05-10 08:58:00,72.4,37.5,29.94,South,181,0.0,1.0,28,0.00,,,0.00,VWS V14.01,2013-05-10 15:58:00,
2013-05-10 09:03:00,73.8,37.8,29.94,SSW,192,2.0,5.0,27,0.00,,,0.00,VWS V14.01,2013-05-10 16:03:00,
2013-05-10 09:08:00,72.7,37.8,29.93,SSW,208,0.0,4.0,28,0.00,,,0.00,VWS V14.01,2013-05-10 16:08:00,
2013-05-10 09:13:00,73.3,37.3,29.94,West,281,0.0,4.0,27,0.00,,,0.00,VWS V14.01,2013-05-10 16:13:00,
2013-05-10 09:18:00,74.5,37.4,29.93,South,171,2.0,4.0,26,0.00,,,0.00,VWS V14.01,2013-05-10 16:18:00,
2013-05-10 09:23:00,73.9,35.9,29.93,South,171,1.0,4.0,25,0.00,,,0.00,VWS V14.01,2013-05-10 16:23:00,
2013-05-10 09:28:00,74.2,37.1,29.93,South,181,2.0,2.0,26,0.00,,,0.00,VWS V14.01,2013-05-10 16:28:00,
2013-05-10 09:33:00,75.8,37.5,29.93,SW,227,0.0,3.0,25,0.00,,,0.00,VWS V14.01,2013-05-10 16:33:00,
2013-05-10 09:38:00,76.1,37.8,29.93,SW,217,0.0,4.0,25,0.00,,,0.00,VWS V14.01,2013-05-10 16:38:00,
2013-05-10 09:43:00,75.1,36.9,29.93,West,264,0.0,3.0,25,0.00,,,0.00,VWS V14.01,2013-05-10 16:43:00,
2013-05-10 09:48:00,75.6,36.3,29.93,West,281,0.0,3.0,24,0.00,,,0.00,VWS V14.01,2013-05-10 16:48:00,
2013-05-10 09:53:00,75.3,36.0,29.93,WNW,287,1.0,2.0,24,0.00,,,0.00,VWS V14.01,2013-05-10 16:53:00,
2013-05-10 09:58:00,75.3,36.0,29.93,NE,39,0.0,4.0,24,0.00,,,0.00,VWS V14.01,2013-05-10 16:58:00,
2013-05-10 10:03:00,75.3,36.0,29.93,North,355,2.0,3.0,24,0.00,,,0.00,VWS V14.01,2013-05-10 17:03:00,
2013-05-10 10:08:00,76.6,36.1,29.93,SSE,159,0.0,8.0,23,0.00,,,0.00,VWS V14.01,2013-05-10 17:08:00,
2013-05-10 10:13:00,77.9,34.9,29.93,South,175,0.0,6.0,21,0.00,,,0.00,VWS V14.01,2013-05-10 17:13:00,
2013-05-10 10:18:00,78.2,36.3,29.93,South,169,0.0,5.0,22,0.00,,,0.00,VWS V14.01,2013-05-10 17:18:00,
2013-05-10 10:23:00,76.4,34.8,29.93,East,100,2.0,6.0,22,0.00,,,0.00,VWS V14.01,2013-05-10 17:23:00,
2013-05-10 10:28:00,77.5,34.5,29.93,SE,131,1.0,5.0,21,0.00,,,0.00,VWS V14.01,2013-05-10 17:28:00,
2013-05-10 10:33:00,78.0,34.9,29.93,SSE,163,4.0,4.0,21,0.00,,,0.00,VWS V14.01,2013-05-10 17:33:00,
2013-05-10 10:38:00,78.7,34.3,29.93,ESE,122,4.0,5.0,20,0.00,,,0.00,VWS V14.01,2013-05-10 17:38:00,
2013-05-10 10:44:00,78.1,35.0,29.93,ESE,113,2.0,8.0,21,0.00,,,0.00,VWS V14.01,2013-05-10 17:44:00,
2013-05-10 10:49:00,79.0,33.3,29.92,NNE,32,1.0,4.0,19,0.00,,,0.00,VWS V14.01,2013-05-10 17:49:00,
2013-05-10 10:54:00,78.3,34.0,29.92,East,96,1.0,2.0,20,0.00,,,0.00,VWS V14.01,2013-05-10 17:54:00,
2013-05-10 10:59:00,79.7,33.8,29.92,North,10,5.0,7.0,19,0.00,,,0.00,VWS V14.01,2013-05-10 17:59:00,
2013-05-10 11:04:00,78.8,33.1,29.92,NNE,25,2.0,6.0,19,0.00,,,0.00,VWS V14.01,2013-05-10 18:04:00,
2013-05-10 11:09:00,80.3,34.3,29.92,SW,220,2.0,6.0,19,0.00,,,0.00,VWS V14.01,2013-05-10 18:09:00,
2013-05-10 11:14:00,81.4,33.9,29.92,SE,126,6.0,7.0,18,0.00,,,0.00,VWS V14.01,2013-05-10 18:14:00,
2013-05-10 11:19:00,80.0,32.7,29.92,SSE,147,0.0,11.0,18,0.00,,,0.00,VWS V14.01,2013-05-10 18:19:00,
2013-05-10 11:24:00,80.8,33.4,29.92,ESE,119,6.0,9.0,18,0.00,,,0.00,VWS V14.01,2013-05-10 18:24:00,
2013-05-10 11:29:00,81.5,34.0,29.92,South,184,2.0,2.0,18,0.00,,,0.00,VWS V14.01,2013-05-10 18:29:00,
2013-05-10 11:34:00,81.0,33.5,29.92,South,186,0.0,3.0,18,0.00,,,0.00,VWS V14.01,2013-05-10 18:34:00,
2013-05-10 11:39:00,79.9,32.7,29.92,ESE,109,0.0,6.0,18,0.00,,,0.00,VWS V14.01,2013-05-10 18:39:00,
2013-05-10 11:44:00,78.2,32.6,29.92,ESE,107,1.0,6.0,19,0.00,,,0.00,VWS V14.01,2013-05-10 18:44:00,
2013-05-10 11:49:00,78.3,32.7,29.91,East,82,0.0,4.0,19,0.00,,,0.00,VWS V14.01,2013-05-10 18:49:00,
2013-05-10 11:54:00,78.7,33.0,29.91,SSE,150,1.0,8.0,19,0.00,,,0.00,VWS V14.01,2013-05-10 18:54:00,
2013-05-10 11:59:00,79.9,32.7,29.91,ESE,108,1.0,4.0,18,0.00,,,0.00,VWS V14.01,2013-05-10 18:59:00,
2013-05-10 12:04:00,82.7,33.5,29.91,SE,132,7.0,9.0,17,0.00,,,0.00,VWS V14.01,2013-05-10 19:04:00,
2013-05-10 12:09:00,80.8,33.4,29.91,SSE,159,7.0,7.0,18,0.00,,,0.00,VWS V14.01,2013-05-10 19:09:00,
2013-05-10 12:14:00,81.1,33.6,29.90,South,180,0.0,8.0,18,0.00,,,0.00,VWS V14.01,2013-05-10 19:14:00,
2013-05-10 12:19:00,82.1,33.0,29.90,South,183,0.0,9.0,17,0.00,,,0.00,VWS V14.01,2013-05-10 19:19:00,
2013-05-10 12:24:00,82.0,32.9,29.90,SE,144,1.0,8.0,17,0.00,,,0.00,VWS V14.01,2013-05-10 19:24:00,
2013-05-10 12:29:00,83.4,35.5,29.89,SW,219,0.0,5.0,18,0.00,,,0.00,VWS V14.01,2013-05-10 19:29:00,
2013-05-10 12:34:00,83.5,34.1,29.89,West,261,3.0,5.0,17,0.00,,,0.00,VWS V14.01,2013-05-10 19:34:00,
2013-05-10 12:39:00,83.6,32.7,29.89,West,277,2.0,5.0,16,0.00,,,0.00,VWS V14.01,2013-05-10 19:39:00,
2013-05-10 12:44:00,82.6,33.4,29.89,NW,306,0.0,7.0,17,0.00,,,0.00,VWS V14.01,2013-05-10 19:44:00,
2013-05-10 12:49:00,82.9,33.7,29.89,NW,314,7.0,7.0,17,0.00,,,0.00,VWS V14.01,2013-05-10 19:49:00,
2013-05-10 12:54:00,84.5,33.4,29.89,SSW,192,2.0,8.0,16,0.00,,,0.00,VWS V14.01,2013-05-10 19:54:00,
2013-05-10 12:59:00,83.7,32.8,29.89,WNW,286,0.0,7.0,16,0.00,,,0.00,VWS V14.01,2013-05-10 19:59:00,
2013-05-10 13:04:00,81.9,32.8,29.89,SW,225,3.0,6.0,17,0.00,,,0.00,VWS V14.01,2013-05-10 20:04:00,
2013-05-10 13:09:00,82.5,33.3,29.89,WSW,240,0.0,4.0,17,0.00,,,0.00,VWS V14.01,2013-05-10 20:09:00,
2013-05-10 13:14:00,80.8,30.5,29.88,NW,323,0.0,4.0,16,0.00,,,0.00,VWS V14.01,2013-05-10 20:14:00,
2013-05-10 13:19:00,81.9,31.4,29.88,SE,142,1.0,8.0,16,0.00,,,0.00,VWS V14.01,2013-05-10 20:19:00,
2013-05-10 13:24:00,82.2,31.6,29.88,SE,124,4.0,6.0,16,0.00,,,0.00,VWS V14.01,2013-05-10 20:24:00,
2013-05-10 13:29:00,80.3,31.6,29.88,SSE,155,4.0,6.0,17,0.00,,,0.00,VWS V14.01,2013-05-10 20:29:00,
2013-05-10 13:34:00,81.0,32.1,29.88,WSW,238,5.0,5.0,17,0.00,,,0.00,VWS V14.01,2013-05-10 20:34:00,
2013-05-10 13:39:00,81.3,32.4,29.88,SSW,213,4.0,10.0,17,0.00,,,0.00,VWS V14.01,2013-05-10 20:39:00,
2013-05-10 13:44:00,81.5,32.5,29.88,SW,233,5.0,8.0,17,0.00,,,0.00,VWS V14.01,2013-05-10 20:44:00,
2013-05-10 13:49:00,81.1,32.2,29.88,WNW,299,1.0,5.0,17,0.00,,,0.00,VWS V14.01,2013-05-10 20:49:00,
2013-05-10 13:54:00,79.7,32.5,29.88,WSW,252,1.0,1.0,18,0.00,,,0.00,VWS V14.01,2013-05-10 20:54:00,
2013-05-10 13:59:00,79.3,32.2,29.88,WNW,282,0.0,2.0,18,0.00,,,0.00,VWS V14.01,2013-05-10 20:59:00,
2013-05-10 14:04:00,79.7,32.5,29.88,NE,49,4.0,4.0,18,0.00,,,0.00,VWS V14.01,2013-05-10 21:04:00,
2013-05-10 14:09:00,79.4,33.6,29.88,ESE,110,11.0,11.0,19,0.00,,,0.00,VWS V14.01,2013-05-10 21:09:00,
2013-05-10 14:14:00,78.3,32.7,29.87,East,101,1.0,8.0,19,0.00,,,0.00,VWS V14.01,2013-05-10 21:14:00,
2013-05-10 14:19:00,78.4,32.8,29.87,SE,146,11.0,13.0,19,0.00,,,0.00,VWS V14.01,2013-05-10 21:19:00,
2013-05-10 14:24:00,78.4,32.8,29.87,East,84,5.0,11.0,19,0.00,,,0.00,VWS V14.01,2013-05-10 21:24:00,
2013-05-10 14:29:00,78.7,33.0,29.87,ESE,109,2.0,7.0,19,0.00,,,0.00,VWS V14.01,2013-05-10 21:29:00,
2013-05-10 14:34:00,78.8,33.1,29.87,NE,53,0.0,5.0,19,0.00,,,0.00,VWS V14.01,2013-05-10 21:34:00,
2013-05-10 14:39:00,78.5,31.5,29.87,ESE,121,5.0,5.0,18,0.00,,,0.00,VWS V14.01,2013-05-10 21:39:00,
2013-05-10 14:44:00,78.7,33.0,29.87,SSE,165,0.0,5.0,19,0.00,,,0.00,VWS V14.01,2013-05-10 21:44:00,
2013-05-10 14:49:00,79.3,32.2,29.87,SSE,150,6.0,7.0,18,0.00,,,0.00,VWS V14.01,2013-05-10 21:49:00,
2013-05-10 14:54:00,79.5,30.9,29.87,ESE,123,7.0,8.0,17,0.00,,,0.00,VWS V14.01,2013-05-10 21:54:00,
2013-05-10 14:59:00,79.8,32.6,29.87,South,189,2.0,4.0,18,0.00,,,0.00,VWS V14.01,2013-05-10 21:59:00,
2013-05-10 15:01:00,79.9,32.7,29.86,ESE,115,5.0,11.0,18,0.00,,,0.00,VWS V14.01,2013-05-10 22:01:00,
2013-05-10 15:04:00,79.9,31.2,29.87,South,188,1.0,10.0,17,0.00,,,0.00,VWS V14.01,2013-05-10 22:04:00,
2013-05-10 15:09:00,81.2,30.8,29.87,SSE,168,1.0,7.0,16,0.00,,,0.00,VWS V14.01,2013-05-10 22:09:00,
2013-05-10 15:14:00,79.9,31.2,29.87,SSW,192,2.0,7.0,17,0.00,,,0.00,VWS V14.01,2013-05-10 22:14:00,
2013-05-10 15:19:00,80.3,31.6,29.86,SSW,198,0.0,3.0,17,0.00,,,0.00,VWS V14.01,2013-05-10 22:19:00,
2013-05-10 15:24:00,80.3,31.6,29.86,NNW,333,3.0,4.0,17,0.00,,,0.00,VWS V14.01,2013-05-10 22:24:00,
2013-05-10 15:29:00,79.5,30.9,29.86,NNW,336,0.0,7.0,17,0.00,,,0.00,VWS V14.01,2013-05-10 22:29:00,
2013-05-10 15:34:00,79.7,32.5,29.87,WNW,298,0.0,1.0,18,0.00,,,0.00,VWS V14.01,2013-05-10 22:34:00,
2013-05-10 15:39:00,80.1,32.8,29.87,NW,305,4.0,8.0,18,0.00,,,0.00,VWS V14.01,2013-05-10 22:39:00,
2013-05-10 15:44:00,80.7,31.9,29.87,NW,323,0.0,6.0,17,0.00,,,0.00,VWS V14.01,2013-05-10 22:44:00,
2013-05-10 15:49:00,81.2,32.3,29.86,North,10,6.0,8.0,17,0.00,,,0.00,VWS V14.01,2013-05-10 22:49:00,
2013-05-10 15:54:00,81.3,32.4,29.87,NW,325,8.0,10.0,17,0.00,,,0.00,VWS V14.01,2013-05-10 22:54:00,
2013-05-10 15:59:00,80.9,32.0,29.87,WNW,282,3.0,11.0,17,0.00,,,0.00,VWS V14.01,2013-05-10 22:59:00,
2013-05-10 16:04:00,80.2,31.5,29.87,WNW,286,3.0,17.0,17,0.00,,,0.00,VWS V14.01,2013-05-10 23:04:00,
2013-05-10 16:09:00,79.4,30.8,29.87,North,350,6.0,8.0,17,0.00,,,0.00,VWS V14.01,2013-05-10 23:09:00,
2013-05-10 16:14:00,79.5,32.3,29.87,NW,321,4.0,5.0,18,0.00,,,0.00,VWS V14.01,2013-05-10 23:14:00,
2013-05-10 16:19:00,79.9,31.2,29.87,NW,316,4.0,8.0,17,0.00,,,0.00,VWS V14.01,2013-05-10 23:19:00,
2013-05-10 16:24:00,80.4,31.6,29.87,NW,317,5.0,6.0,17,0.00,,,0.00,VWS V14.01,2013-05-10 23:24:00,
2013-05-10 16:29:00,80.0,31.3,29.87,WSW,257,1.0,6.0,17,0.00,,,0.00,VWS V14.01,2013-05-10 23:29:00,
2013-05-10 16:34:00,79.8,31.1,29.87,NW,321,4.0,4.0,17,0.00,,,0.00,VWS V14.01,2013-05-10 23:34:00,
2013-05-10 16:39:00,79.8,31.1,29.87,NNW,342,4.0,4.0,17,0.00,,,0.00,VWS V14.01,2013-05-10 23:39:00,
2013-05-10 16:44:00,79.2,30.7,29.87,NNW,341,3.0,5.0,17,0.00,,,0.00,VWS V14.01,2013-05-10 23:44:00,
2013-05-10 16:49:00,79.4,32.2,29.87,NNW,336,4.0,8.0,18,0.00,,,0.00,VWS V14.01,2013-05-10 23:49:00,
2013-05-10 16:54:00,79.7,31.1,29.87,North,5,4.0,7.0,17,0.00,,,0.00,VWS V14.01,2013-05-10 23:54:00,
2013-05-10 16:59:00,79.5,30.9,29.87,North,5,4.0,10.0,17,0.00,,,0.00,VWS V14.01,2013-05-10 23:59:00,
2013-05-10 17:04:00,79.4,30.8,29.87,North,5,0.0,4.0,17,0.00,,,0.00,VWS V14.01,2013-05-11 00:04:00,
2013-05-10 17:09:00,79.8,32.6,29.87,North,5,0.0,5.0,18,0.00,,,0.00,VWS V14.01,2013-05-11 00:09:00,
2013-05-10 17:14:00,79.7,31.1,29.87,North,360,1.0,4.0,17,0.00,,,0.00,VWS V14.01,2013-05-11 00:14:00,
2013-05-10 17:19:00,79.4,32.2,29.87,NNW,345,0.0,1.0,18,0.00,,,0.00,VWS V14.01,2013-05-11 00:19:00,
2013-05-10 17:24:00,79.0,33.3,29.87,SSE,149,9.0,9.0,19,0.00,,,0.00,VWS V14.01,2013-05-11 00:24:00,
2013-05-10 17:29:00,78.2,33.9,29.87,East,80,3.0,8.0,20,0.00,,,0.00,VWS V14.01,2013-05-11 00:29:00,
2013-05-10 17:34:00,78.1,32.5,29.87,SSE,147,4.0,10.0,19,0.00,,,0.00,VWS V14.01,2013-05-11 00:34:00,
2013-05-10 17:39:00,78.3,32.7,29.87,ESE,117,1.0,8.0,19,0.00,,,0.00,VWS V14.01,2013-05-11 00:39:00,
2013-05-10 17:44:00,78.1,32.5,29.87,ESE,113,5.0,7.0,19,0.00,,,0.00,VWS V14.01,2013-05-11 00:44:00,
2013-05-10 17:49:00,77.8,33.6,29.87,South,185,5.0,8.0,20,0.00,,,0.00,VWS V14.01,2013-05-11 00:49:00,
2013-05-10 17:54:00,77.5,33.3,29.87,SSE,156,2.0,9.0,20,0.00,,,0.00,VWS V14.01,2013-05-11 00:54:00,
2013-05-10 17:59:00,77.3,33.1,29.88,East,93,2.0,8.0,20,0.00,,,0.00,VWS V14.01,2013-05-11 00:59:00,
2013-05-10 18:04:00,77.0,32.9,29.88,SE,132,4.0,9.0,20,0.00,,,0.00,VWS V14.01,2013-05-11 01:04:00,
2013-05-10 18:09:00,76.8,34.0,29.88,SE,129,5.0,6.0,21,0.00,,,0.00,VWS V14.01,2013-05-11 01:09:00,
2013-05-10 18:14:00,76.8,34.0,29.88,ESE,116,1.0,4.0,21,0.00,,,0.00,VWS V14.01,2013-05-11 01:14:00,
2013-05-10 18:19:00,76.6,33.8,29.88,ESE,116,1.0,5.0,21,0.00,,,0.00,VWS V14.01,2013-05-11 01:19:00,
2013-05-10 18:24:00,76.4,34.8,29.89,ESE,109,0.0,5.0,22,0.00,,,0.00,VWS V14.01,2013-05-11 01:24:00,
2013-05-10 18:29:00,76.0,34.5,29.89,ENE,58,2.0,8.0,22,0.00,,,0.00,VWS V14.01,2013-05-11 01:29:00,
2013-05-10 18:34:00,76.0,34.5,29.89,ESE,107,0.0,7.0,22,0.00,,,0.00,VWS V14.01,2013-05-11 01:34:00,
2013-05-10 18:39:00,76.1,34.5,29.89,East,82,3.0,5.0,22,0.00,,,0.00,VWS V14.01,2013-05-11 01:39:00,
2013-05-10 18:44:00,76.2,34.6,29.90,ENE,59,3.0,3.0,22,0.00,,,0.00,VWS V14.01,2013-05-11 01:44:00,
2013-05-10 18:49:00,76.1,34.5,29.90,NE,51,0.0,5.0,22,0.00,,,0.00,VWS V14.01,2013-05-11 01:49:00,
2013-05-10 18:54:00,75.9,34.4,29.90,ESE,111,7.0,7.0,22,0.00,,,0.00,VWS V14.01,2013-05-11 01:54:00,
2013-05-10 18:59:00,75.6,34.1,29.90,SE,130,0.0,6.0,22,0.00,,,0.00,VWS V14.01,2013-05-11 01:59:00,
2013-05-10 19:04:00,75.3,35.0,29.90,ESE,106,2.0,8.0,23,0.00,,,0.00,VWS V14.01,2013-05-11 02:04:00,
2013-05-10 19:09:00,75.1,34.8,29.90,ESE,112,0.0,6.0,23,0.00,,,0.00,VWS V14.01,2013-05-11 02:09:00,
2013-05-10 19:14:00,74.9,34.6,29.91,ESE,109,0.0,5.0,23,0.00,,,0.00,VWS V14.01,2013-05-11 02:14:00,
2013-05-10 19:19:00,74.6,34.4,29.91,ESE,109,0.0,2.0,23,0.00,,,0.00,VWS V14.01,2013-05-11 02:19:00,
2013-05-10 19:24:00,74.2,35.1,29.91,East,91,0.0,2.0,24,0.00,,,0.00,VWS V14.01,2013-05-11 02:24:00,
2013-05-10 19:29:00,73.8,34.8,29.91,East,91,0.0,1.0,24,0.00,,,0.00,VWS V14.01,2013-05-11 02:29:00,
2013-05-10 19:34:00,73.3,34.4,29.91,East,91,0.0,0.0,24,0.00,,,0.00,VWS V14.01,2013-05-11 02:34:00,
2013-05-10 19:39:00,72.9,35.0,29.91,East,91,0.0,0.0,25,0.00,,,0.00,VWS V14.01,2013-05-11 02:39:00,
2013-05-10 19:44:00,72.1,34.4,29.92,East,91,0.0,0.0,25,0.00,,,0.00,VWS V14.01,2013-05-11 02:44:00,
2013-05-10 19:49:00,71.3,33.7,29.92,East,91,0.0,1.0,25,0.00,,,0.00,VWS V14.01,2013-05-11 02:49:00,
2013-05-10 19:54:00,71.0,33.4,29.92,East,91,0.0,0.0,25,0.00,,,0.00,VWS V14.01,2013-05-11 02:54:00,
2013-05-10 19:59:00,70.8,34.2,29.92,East,91,0.0,1.0,26,0.00,,,0.00,VWS V14.01,2013-05-11 02:59:00,
2013-05-10 20:04:00,71.0,34.4,29.92,East,91,0.0,0.0,26,0.00,,,0.00,VWS V14.01,2013-05-11 03:04:00,
2013-05-10 20:09:00,71.0,34.4,29.92,East,91,0.0,0.0,26,0.00,,,0.00,VWS V14.01,2013-05-11 03:09:00,
2013-05-10 20:14:00,71.0,34.4,29.93,East,91,0.0,0.0,26,0.00,,,0.00,VWS V14.01,2013-05-11 03:14:00,
2013-05-10 20:19:00,71.2,34.6,29.93,East,91,0.0,0.0,26,0.00,,,0.00,VWS V14.01,2013-05-11 03:19:00,
2013-05-10 20:24:00,71.3,33.7,29.93,East,91,0.0,0.0,25,0.00,,,0.00,VWS V14.01,2013-05-11 03:24:00,
2013-05-10 20:29:00,71.2,33.6,29.94,East,91,0.0,1.0,25,0.00,,,0.00,VWS V14.01,2013-05-11 03:29:00,
2013-05-10 20:34:00,70.7,34.2,29.93,NNE,24,0.0,2.0,26,0.00,,,0.00,VWS V14.01,2013-05-11 03:34:00,
2013-05-10 20:39:00,70.4,33.9,29.94,NNE,24,0.0,1.0,26,0.00,,,0.00,VWS V14.01,2013-05-11 03:39:00,
2013-05-10 20:44:00,70.3,33.8,29.94,North,5,1.0,2.0,26,0.00,,,0.00,VWS V14.01,2013-05-11 03:44:00,
2013-05-10 20:49:00,69.6,33.2,29.94,North,355,1.0,4.0,26,0.00,,,0.00,VWS V14.01,2013-05-11 03:49:00,
2013-05-10 20:54:00,69.4,33.1,29.94,North,355,0.0,1.0,26,0.00,,,0.00,VWS V14.01,2013-05-11 03:54:00,
2013-05-10 20:59:00,69.3,33.9,29.95,North,355,0.0,0.0,27,0.00,,,0.00,VWS V14.01,2013-05-11 03:59:00,
2013-05-10 21:01:00,69.0,33.7,29.95,North,355,0.0,0.0,27,0.00,,,0.00,VWS V14.01,2013-05-11 04:01:00,
2013-05-10 21:04:00,67.7,33.5,29.95,NW,305,1.0,1.0,28,0.00,,,0.00,VWS V14.01,2013-05-11 04:04:00,
2013-05-10 21:09:00,67.8,34.4,29.95,WSW,244,1.0,5.0,29,0.00,,,0.00,VWS V14.01,2013-05-11 04:09:00,
2013-05-10 21:14:00,68.5,35.0,29.96,SW,221,2.0,5.0,29,0.00,,,0.00,VWS V14.01,2013-05-11 04:14:00,
2013-05-10 21:19:00,69.0,35.5,29.96,SW,220,7.0,7.0,29,0.00,,,0.00,VWS V14.01,2013-05-11 04:19:00,
2013-05-10 21:24:00,69.4,34.9,29.96,SW,221,4.0,8.0,28,0.00,,,0.00,VWS V14.01,2013-05-11 04:24:00,
2013-05-10 21:29:00,69.9,35.3,29.97,SSW,207,3.0,6.0,28,0.00,,,0.00,VWS V14.01,2013-05-11 04:29:00,
2013-05-10 21:34:00,70.3,34.8,29.97,SW,220,1.0,8.0,27,0.00,,,0.00,VWS V14.01,2013-05-11 04:34:00,
2013-05-10 21:39:00,70.3,34.8,29.97,SW,225,1.0,7.0,27,0.00,,,0.00,VWS V14.01,2013-05-11 04:39:00,
2013-05-10 21:44:00,70.2,35.6,29.97,West,273,0.0,4.0,28,0.00,,,0.00,VWS V14.01,2013-05-11 04:44:00,
2013-05-10 21:49:00,69.7,35.2,29.97,WSW,252,2.0,2.0,28,0.00,,,0.00,VWS V14.01,2013-05-11 04:49:00,
2013-05-10 21:54:00,69.2,34.7,29.97,WSW,254,0.0,4.0,28,0.00,,,0.00,VWS V14.01,2013-05-11 04:54:00,
2013-05-10 21:59:00,69.0,35.5,29.97,West,270,0.0,4.0,29,0.00,,,0.00,VWS V14.01,2013-05-11 04:59:00,
2013-05-10 22:04:00,68.9,35.4,29.97,West,264,0.0,3.0,29,0.00,,,0.00,VWS V14.01,2013-05-11 05:04:00,
2013-05-10 22:09:00,68.6,35.1,29.97,West,264,0.0,3.0,29,0.00,,,0.00,VWS V14.01,2013-05-11 05:09:00,
2013-05-10 22:14:00,68.4,34.9,29.97,SW,225,2.0,4.0,29,0.00,,,0.00,VWS V14.01,2013-05-11 05:14:00,
2013-05-10 22:19:00,68.0,34.6,29.98,SW,226,0.0,4.0,29,0.00,,,0.00,VWS V14.01,2013-05-11 05:19:00,
2013-05-10 22:25:00,67.8,35.3,29.98,SW,226,2.0,3.0,30,0.00,,,0.00,VWS V14.01,2013-05-11 05:25:00,
2013-05-10 22:30:00,67.5,35.0,29.97,SW,227,0.0,2.0,30,0.00,,,0.00,VWS V14.01,2013-05-11 05:30:00,
2013-05-10 22:35:00,67.6,35.1,29.98,SW,227,0.0,2.0,30,0.00,,,0.00,VWS V14.01,2013-05-11 05:35:00,
2013-05-10 22:40:00,67.5,35.0,29.98,SW,227,0.0,2.0,30,0.00,,,0.00,VWS V14.01,2013-05-11 05:40:00,
2013-05-10 22:45:00,67.2,34.8,29.98,SW,226,1.0,3.0,30,0.00,,,0.00,VWS V14.01,2013-05-11 05:45:00,
2013-05-10 22:50:00,67.3,34.8,29.98,WSW,250,0.0,2.0,30,0.00,,,0.00,VWS V14.01,2013-05-11 05:50:00,
2013-05-10 22:55:00,67.6,35.1,29.98,WSW,252,1.0,2.0,30,0.00,,,0.00,VWS V14.01,2013-05-11 05:55:00,
2013-05-10 23:00:00,67.9,35.3,29.98,West,269,1.0,3.0,30,0.00,,,0.00,VWS V14.01,2013-05-11 06:00:00,
2013-05-10 23:05:00,67.7,35.2,29.98,West,269,0.0,0.0,30,0.00,,,0.00,VWS V14.01,2013-05-11 06:05:00,
2013-05-10 23:10:00,67.6,35.1,29.98,West,269,0.0,0.0,30,0.00,,,0.00,VWS V14.01,2013-05-11 06:10:00,
2013-05-10 23:15:00,67.7,35.2,29.98,West,272,0.0,1.0,30,0.00,,,0.00,VWS V14.01,2013-05-11 06:15:00,
2013-05-10 23:20:00,67.8,35.3,29.98,West,272,0.0,2.0,30,0.00,,,0.00,VWS V14.01,2013-05-11 06:20:00,
2013-05-10 23:25:00,67.8,35.3,29.98,West,272,0.0,1.0,30,0.00,,,0.00,VWS V14.01,2013-05-11 06:25:00,
2013-05-10 23:30:00,67.4,34.9,29.98,West,272,0.0,0.0,30,0.00,,,0.00,VWS V14.01,2013-05-11 06:30:00,
2013-05-10 23:35:00,67.0,35.4,29.98,West,272,0.0,1.0,31,0.00,,,0.00,VWS V14.01,2013-05-11 06:35:00,
2013-05-10 23:40:00,66.5,35.0,29.98,West,272,0.0,1.0,31,0.00,,,0.00,VWS V14.01,2013-05-11 06:40:00,
2013-05-10 23:45:00,66.1,34.6,29.98,West,272,0.0,1.0,31,0.00,,,0.00,VWS V14.01,2013-05-11 06:45:00,
2013-05-10 23:50:00,65.3,34.7,29.98,NE,42,3.0,3.0,32,0.00,,,0.00,VWS V14.01,2013-05-11 06:50:00,
2013-05-10 23:55:00,65.1,34.5,29.98,NE,40,2.0,3.0,32,0.00,,,0.00,VWS V14.01,2013-05-11 06:55:00,